Weather History for KRME - February, 2014

Change the Weather History Date:

Thursday, February 20, 2014

  Actual Average Record
Temperature  
Mean Temperature 28 °F -  
Max Temperature 41 °F 38 °F 55 °F (1981)
Min Temperature 15 °F 23 °F -13 °F (2015)
Degree Days  
Heating Degree Days 37    
Moisture  
Dew Point 25 °F    
Average Humidity 87    
Maximum Humidity 100    
Minimum Humidity 55    
Precipitation  
Precipitation 0.40 in - - ()
Sea Level Pressure  
Sea Level Pressure 30.12 in    
Wind  
Wind Speed 4 mph (ESE)    
Max Wind Speed 14 mph    
Max Gust Speed -    
Visibility 4 miles    
Events Fog , Rain , Snow    
Averages and records for this station are not official NWS values.
T = Trace of Precipitation, MM = Missing Value Source: NWS Daily Summary

Daily Weather History Graph

Daily Weather History Graph

Search for Another Location

Airport or City:

Trip Planner

Search our weather history database for the weather conditions in past years. The results will help you decide how hot, cold, wet, or windy it might be!

Date:

Astronomy

Feb. 20, 2014 Rise Set
Actual Time 6:52 AM EST 5:39 PM EST
Civil Twilight 6:23 AM EST 6:08 PM EST
Nautical Twilight 5:50 AM EST 6:41 PM EST
Astronomical Twilight 5:17 AM EST 7:14 PM EST
Moon 11:41 PM EST (2/20) 9:23 AM EST (2/20)
Length of Visible Light 11h 44m
Length of Day
10h 47m
Waning Gibbous, 71% of the Moon is Illuminated
Feb 20
Waning Gibbous
Feb 22
Last Quarter
Mar 1
New
Mar 8
First Quarter
Mar 16
Full

Hourly Weather History & Observations

Time (EST) Temp. Windchill Dew Point Humidity Pressure Visibility Wind Dir Wind Speed Gust Speed Precip Events Conditions
12:53 AM 32.0 °F 24.8 °F 28.0 °F 85% 30.09 in 7.0 mi WNW 8.1 mph - N/A   Scattered Clouds
1:48 AM 30.2 °F - 26.6 °F 86% 30.10 in 6.0 mi Calm Calm - N/A   Mostly Cloudy
1:53 AM 30.0 °F - 26.1 °F 85% 30.11 in 6.0 mi Calm Calm - N/A   Mostly Cloudy
2:10 AM 28.9 °F - 26.1 °F 89% 30.10 in 5.0 mi Calm Calm - N/A   Scattered Clouds
2:53 AM 27.0 °F - 25.0 °F 92% 30.11 in 4.0 mi Calm Calm - N/A   Clear
3:10 AM 23.0 °F - 21.9 °F 96% 30.09 in 1.8 mi Calm Calm - N/A   Clear
3:39 AM 25.0 °F - 23.0 °F 92% 30.10 in 0.8 mi Calm Calm - N/A   Mist
3:51 AM 19.4 °F - 19.4 °F 100% 30.10 in 0.2 mi Calm Calm - N/A Fog Light Freezing Fog
3:53 AM 21.0 °F - 19.0 °F 92% 30.11 in 0.2 mi Calm Calm - N/A Fog Light Freezing Fog
4:01 AM 19.9 °F - 19.9 °F 100% 30.10 in 0.2 mi Calm Calm - N/A Fog Light Freezing Fog
4:07 AM 19.9 °F - 18.0 °F 92% 30.10 in 0.5 mi Calm Calm - N/A Fog Light Freezing Fog
4:23 AM 19.0 °F - 17.1 °F 92% 30.11 in 0.2 mi Calm Calm - N/A Fog Light Freezing Fog
4:43 AM 19.0 °F - 16.0 °F 88% 30.12 in 0.2 mi Calm Calm - N/A Fog Light Freezing Fog
4:53 AM 19.9 °F - 18.0 °F 92% 30.14 in 0.2 mi Calm Calm - N/A Fog Light Freezing Fog
5:36 AM 18.0 °F - 16.0 °F 92% 30.15 in 0.2 mi Calm Calm - N/A Fog Light Freezing Fog
5:42 AM 17.1 °F - 16.0 °F 96% 30.15 in 1.0 mi Calm Calm - N/A   Mist
5:51 AM 15.8 °F - 15.8 °F 100% 30.15 in 0.2 mi Calm Calm - N/A Fog Light Freezing Fog
5:53 AM 16.0 °F 10.4 °F 14.0 °F 92% 30.17 in 0.2 mi SE 3.5 mph - N/A Fog Light Freezing Fog
6:02 AM 18.0 °F 12.7 °F 15.1 °F 88% 30.16 in 1.2 mi SE 3.5 mph - N/A   Scattered Clouds
6:06 AM 17.1 °F 11.7 °F 15.1 °F 92% 30.15 in 3.0 mi SE 3.5 mph - N/A   Partly Cloudy
6:53 AM 17.1 °F 10.0 °F 14.0 °F 88% 30.19 in 2.5 mi SE 4.6 mph - N/A   Clear
7:53 AM 19.9 °F 13.4 °F 18.0 °F 92% 30.19 in 2.0 mi SSE 4.6 mph - N/A   Clear
8:14 AM 21.0 °F 13.4 °F 19.0 °F 92% 30.18 in 1.8 mi SSE 5.8 mph - N/A   Clear
8:36 AM 23.0 °F 17.0 °F 21.9 °F 96% 30.18 in 2.0 mi SSE 4.6 mph - N/A   Clear
8:53 AM 25.0 °F - 24.1 °F 96% 30.21 in 2.5 mi Calm Calm - N/A   Clear
9:17 AM 27.0 °F 23.0 °F 26.1 °F 96% 30.19 in 3.0 mi East 3.5 mph - N/A   Clear
9:53 AM 28.9 °F 22.8 °F 26.1 °F 89% 30.21 in 6.0 mi ESE 5.8 mph - N/A   Clear
10:53 AM 34.0 °F 29.8 °F 27.0 °F 75% 30.19 in 8.0 mi South 4.6 mph - N/A   Clear
11:53 AM 37.9 °F 35.5 °F 27.0 °F 65% 30.18 in 10.0 mi SE 3.5 mph - N/A   Clear
12:53 PM 39.0 °F 35.7 °F 26.1 °F 60% 30.15 in 10.0 mi ESE 4.6 mph - N/A   Scattered Clouds
1:53 PM 39.0 °F 34.8 °F 27.0 °F 62% 30.12 in 10.0 mi East 5.8 mph - N/A   Partly Cloudy
2:53 PM 41.0 °F 35.8 °F 26.1 °F 55% 30.10 in 10.0 mi ESE 8.1 mph - N/A   Clear
3:53 PM 41.0 °F 35.8 °F 26.1 °F 55% 30.09 in 10.0 mi East 8.1 mph - N/A   Scattered Clouds
4:53 PM 39.9 °F 35.1 °F 27.0 °F 60% 30.07 in 10.0 mi SE 6.9 mph - N/A   Overcast
5:42 PM 36.0 °F 27.5 °F 32.0 °F 86% 30.10 in 5.0 mi SSE 12.7 mph - 0.03 in Rain Heavy Rain
5:53 PM 35.1 °F 27.9 °F 32.0 °F 89% 30.12 in 5.0 mi SE 9.2 mph - 0.05 in Rain Rain
6:16 PM 34.0 °F 26.6 °F 32.0 °F 92% 30.09 in 5.0 mi ESE 9.2 mph - 0.04 in Rain Rain
6:24 PM 34.0 °F 27.2 °F 30.9 °F 89% 30.09 in 5.0 mi East 8.1 mph - 0.04 in Rain Rain
6:42 PM 33.1 °F 26.9 °F 30.9 °F 92% 30.09 in 2.0 mi East 6.9 mph - 0.08 in Snow Light Snow
6:49 PM 33.8 °F 27.7 °F 30.2 °F 87% 30.09 in 1.8 mi East 6.9 mph - 0.09 in Snow Light Snow
6:53 PM 33.1 °F 26.9 °F 30.9 °F 92% 30.12 in 2.0 mi East 6.9 mph - 0.09 in Snow Light Snow
7:04 PM 33.1 °F 27.7 °F 30.9 °F 92% 30.10 in 2.5 mi East 5.8 mph - 0.02 in Snow Light Snow
7:14 PM 33.1 °F 27.7 °F 30.9 °F 92% 30.10 in 4.0 mi East 5.8 mph - 0.02 in Snow Light Snow
7:53 PM 33.1 °F 24.4 °F 30.9 °F 92% 30.09 in 6.0 mi East 11.5 mph - 0.07 in Rain Light Rain
8:09 PM 34.0 °F 26.0 °F 32.0 °F 92% 30.06 in 9.0 mi East 10.4 mph - 0.00 in Rain Light Rain
8:53 PM 34.0 °F 25.5 °F 32.0 °F 92% 30.04 in 10.0 mi East 11.5 mph - 0.00 in   Overcast
9:53 PM 34.0 °F 25.5 °F 30.9 °F 89% 30.01 in 10.0 mi ESE 11.5 mph - 0.00 in Rain Light Rain
10:53 PM 35.1 °F 25.9 °F 32.0 °F 89% 30.00 in 8.0 mi East 13.8 mph - 0.04 in Rain Rain
11:53 PM 34.0 °F 25.0 °F 32.0 °F 92% 29.96 in 4.0 mi ESE 12.7 mph - 0.15 in Rain Rain